GW1035 Weather Reports


time (UTC)temp
C
wind
direction
speed
KPH
gust
KPH
rain 1hr
cm
rain 24hr
cm
rain mn
cm
humidity
%
barometer
mb
20260506015044 16 0 0.0 1.6 0.00 0.00 0.00 68 1008.3
20260506014551 17 0 0.0 1.6 0.00 0.00 0.00 68 1008.4
20260506014040 17 202 0.0 0.0 0.00 0.00 0.00 67 1008.4
20260506013541 17 0 0.0 1.6 0.00 0.00 0.00 67 1008.4
20260506013101 17 0 0.0 1.6 0.00 0.00 0.00 67 1008.3
20260506012536 17 202 0.0 1.6 0.00 0.00 0.00 67 1008.3
20260506012041 17 0 0.0 1.6 0.00 0.00 0.00 67 1008.3
20260506011612 17 207 0.0 1.6 0.00 0.00 0.00 67 1008.3
20260506011040 17 0 0.0 1.6 0.00 0.00 0.00 67 1008.3
20260506010540 17 0 0.0 0.0 0.00 0.00 0.00 66 1008.3
20260506010057 17 0 0.0 0.0 0.00 0.00 0.00 66 1008.2
20260506005543 17 0 0.0 0.0 0.00 0.00 0.00 65 1008.0
20260506005039 17 0 0.0 0.0 0.00 0.00 0.00 65 1007.9
20260506004548 17 0 0.0 3.2 0.00 0.00 0.00 65 1008.0
20260506004040 17 158 0.0 3.2 0.00 0.00 0.00 64 1008.0
20260506003540 18 174 1.6 3.2 0.00 0.00 0.00 64 1008.0
20260506003047 18 220 0.0 4.8 0.00 0.00 0.00 64 1008.1
20260506002539 18 220 0.0 4.8 0.00 0.00 0.00 64 1007.9
20260506002036 18 295 1.6 4.8 0.00 0.00 0.00 64 1007.8
20260506001553 18 159 1.6 6.4 0.00 0.00 0.00 64 1007.4
20260506001041 18 214 1.6 6.4 0.00 0.00 0.00 63 1007.3
20260506000537 18 184 1.6 3.2 0.00 0.00 0.00 63 1006.9
20260506000054 18 179 1.6 1.6 0.00 0.00 0.00 63 1006.6
20260505235539 18 175 1.6 1.6 0.00 0.00 0.00 62 1006.7
20260505235036 18 161 0.0 4.8 0.00 0.00 0.00 62 1006.5
20260505234545 19 161 1.6 4.8 0.00 0.00 0.00 61 1006.2
20260505234041 19 162 0.0 3.2 0.00 0.00 0.00 63 1006.3
20260505233540 20 130 0.0 1.6 0.00 0.00 0.00 62 1006.1
20260505233050 20 0 0.0 3.2 0.00 0.00 0.00 61 1006.5
20260505232541 20 0 0.0 4.8 0.00 0.00 0.00 61 1006.5
20260505232043 20 0 1.6 9.7 0.00 0.00 0.00 61 1006.6
20260505231606 20 349 1.6 9.7 0.00 0.00 0.00 61 1006.6
20260505231040 19 0 1.6 6.4 0.00 0.00 0.00 61 1006.7
20260505230540 19 195 1.6 4.8 0.00 0.00 0.00 60 1006.7
20260505230053 19 141 0.0 17.7 0.00 0.00 0.00 59 1006.5
20260505225542 19 195 3.2 17.7 0.00 0.00 0.00 58 1006.4
20260505225040 19 251 6.4 17.7 0.00 0.00 0.00 57 1006.9
20260505224554 19 275 3.2 12.9 0.00 0.00 0.00 57 1005.2
20260505224039 19 200 6.4 12.9 0.00 0.00 0.00 56 1004.7
20260505223539 20 163 8.0 14.5 0.00 0.00 0.00 56 1004.7
20260505223054 20 162 6.4 16.1 0.00 0.00 0.00 55 1004.7
20260505222545 20 212 8.0 16.1 0.00 0.00 0.00 55 1004.5
20260505222040 20 207 6.4 16.1 0.00 0.00 0.00 55 1004.6
20260505221550 20 185 6.4 14.5 0.00 0.00 0.00 55 1004.6
20260505221041 20 193 6.4 14.5 0.00 0.00 0.00 54 1004.6
20260505220540 20 217 4.8 14.5 0.00 0.00 0.00 55 1004.6
20260505220059 20 236 4.8 14.5 0.00 0.00 0.00 54 1004.5
20260505215541 20 215 6.4 14.5 0.00 0.00 0.00 53 1004.4
20260505215040 21 217 4.8 14.5 0.00 0.00 0.00 53 1004.4
20260505214555 21 186 6.4 12.9 0.00 0.00 0.00 52 1004.3
20260505214040 21 200 6.4 17.7 0.00 0.00 0.00 51 1004.3
20260505213536 22 250 6.4 17.7 0.00 0.00 0.00 51 1004.4
20260505213052 22 206 8.0 17.7 0.00 0.00 0.00 50 1004.3
20260505212539 22 217 6.4 17.7 0.00 0.00 0.00 49 1004.2
20260505212037 22 248 8.0 16.1 0.00 0.00 0.00 50 1003.8
20260505211550 22 252 6.4 14.5 0.00 0.00 0.00 49 1004.0
20260505211043 22 203 6.4 12.9 0.00 0.00 0.00 50 1004.1
20260505210539 22 231 8.0 14.5 0.00 0.00 0.00 51 1004.0
20260505210047 22 161 6.4 14.5 0.00 0.00 0.00 51 1003.9
20260505205541 22 214 4.8 12.9 0.00 0.00 0.00 50 1004.0
20260505205041 23 162 6.4 12.9 0.00 0.00 0.00 48 1004.1
20260505204542 23 173 4.8 12.9 0.00 0.00 0.00 48 1004.0
20260505204041 23 186 6.4 12.9 0.00 0.00 0.00 48 1003.9
20260505203543 23 213 8.0 12.9 0.00 0.00 0.00 47 1004.0
20260505203106 23 212 8.0 12.9 0.00 0.00 0.00 48 1004.0
20260505202540 23 214 6.4 12.9 0.00 0.00 0.00 48 1004.0
20260505202040 23 172 6.4 12.9 0.00 0.00 0.00 48 1004.0
20260505201554 23 229 6.4 14.5 0.00 0.00 0.00 48 1004.0
20260505201040 23 235 6.4 14.5 0.00 0.00 0.00 49 1004.0
20260505200540 23 184 8.0 14.5 0.00 0.00 0.00 48 1004.1
20260505200052 23 231 6.4 17.7 0.00 0.00 0.00 49 1004.2
20260505195542 23 205 6.4 17.7 0.00 0.00 0.00 49 1004.2
20260505195039 23 171 8.0 16.1 0.00 0.00 0.00 48 1004.3
20260505194545 23 212 9.7 16.1 0.00 0.00 0.00 48 1004.3
20260505194040 23 230 6.4 12.9 0.00 0.00 0.00 47 1004.4
20260505193536 24 165 6.4 14.5 0.00 0.00 0.00 47 1004.5
20260505193043 24 158 4.8 14.5 0.00 0.00 0.00 47 1004.3
20260505192540 24 210 6.4 17.7 0.00 0.00 0.00 46 1004.5
20260505192040 24 201 6.4 17.7 0.00 0.00 0.00 47 1004.6
20260505191554 24 142 8.0 17.7 0.00 0.00 0.00 46 1004.6
20260505191040 24 215 8.0 12.9 0.00 0.00 0.00 45 1004.6
20260505190540 24 232 4.8 11.3 0.00 0.00 0.00 48 1004.8
20260505190053 23 182 4.8 11.3 0.00 0.00 0.00 48 1005.0
20260505185538 24 165 6.4 11.3 0.00 0.00 0.00 47 1005.1
20260505185036 23 172 6.4 14.5 0.00 0.00 0.00 49 1005.2
20260505184547 23 199 4.8 14.5 0.00 0.00 0.00 51 1005.2
20260505184037 23 249 8.0 14.5 0.00 0.00 0.00 50 1005.3
20260505183537 23 150 8.0 12.9 0.00 0.00 0.00 49 1005.4
20260505183046 23 208 6.4 11.3 0.00 0.00 0.00 49 1005.3
20260505182536 23 220 4.8 12.9 0.00 0.00 0.00 51 1005.5
20260505182036 22 179 4.8 12.9 0.00 0.00 0.00 50 1005.4
20260505181547 23 172 4.8 11.3 0.00 0.00 0.00 50 1005.5
20260505181035 22 193 6.4 12.9 0.00 0.00 0.00 51 1005.5
20260505180536 22 205 6.4 14.5 0.00 0.00 0.00 51 1005.5
20260505180047 23 200 6.4 14.5 0.00 0.00 0.00 50 1005.5
20260505175536 22 193 6.4 14.5 0.00 0.00 0.00 50 1005.6
20260505175036 23 205 6.4 12.9 0.00 0.00 0.00 49 1005.6
20260505174549 23 175 6.4 12.9 0.00 0.00 0.00 49 1005.5
20260505174036 23 153 6.4 12.9 0.00 0.00 0.00 48 1005.5
20260505173535 23 237 8.0 12.9 0.00 0.00 0.00 47 1005.7
20260505173054 24 165 4.8 11.3 0.00 0.00 0.00 47 1005.6
20260505172537 24 216 6.4 11.3 0.00 0.00 0.00 47 1005.7
20260505172037 24 233 6.4 12.9 0.00 0.00 0.00 47 1005.8
20260505171548 25 189 6.4 12.9 0.00 0.00 0.00 45 1005.9
20260505171036 25 171 6.4 12.9 0.00 0.00 0.00 45 1006.1
20260505170535 25 262 4.8 12.9 0.00 0.00 0.00 45 1006.1
20260505165538 25 214 8.0 12.9 0.00 0.00 0.00 45 1006.3
20260505165040 25 152 6.4 12.9 0.00 0.00 0.00 45 1006.4
20260505164554 25 205 6.4 9.7 0.00 0.00 0.00 43 1006.5
20260505164038 25 170 4.8 12.9 0.00 0.00 0.00 43 1006.5
20260505163538 25 150 4.8 12.9 0.00 0.00 0.00 45 1006.6
20260505163052 25 258 4.8 11.3 0.00 0.00 0.00 45 1006.8
20260505162535 24 214 3.2 8.0 0.00 0.00 0.00 46 1007.0
20260505162035 23 221 3.2 8.0 0.00 0.00 0.00 49 1007.1
20260505161547 23 180 3.2 8.0 0.00 0.00 0.00 51 1007.1
20260505161038 23 146 3.2 8.0 0.00 0.00 0.00 51 1007.2
20260505160537 23 183 4.8 8.0 0.00 0.00 0.00 49 1007.4
20260505153049 22 178 3.2 8.0 0.00 0.00 0.00 52 1007.8
20260505152538 21 211 1.6 9.7 0.00 0.00 0.00 53 1007.7
20260505152039 21 152 3.2 9.7 0.00 0.00 0.00 53 1007.9
20260505151600 21 202 3.2 6.4 0.00 0.00 0.00 54 1008.1
20260505151038 21 135 3.2 6.4 0.00 0.00 0.00 54 1008.1
20260505150542 20 160 3.2 8.0 0.00 0.00 0.00 55 1008.1
20260505140540 20 198 1.6 6.4 0.00 0.00 0.00 49 1007.3
20260505140104 21 277 3.2 6.4 0.00 0.00 0.00 48 1007.5
20260505125037 16 195 3.2 6.4 0.00 0.00 0.00 61 1008.1
20260505124551 16 234 3.2 6.4 0.00 0.00 0.00 62 1007.8
20260505124041 15 202 3.2 11.3 0.00 0.00 0.00 62 1007.7
20260505123541 15 226 3.2 11.3 0.00 0.00 0.00 62 1007.9
20260505123051 15 210 3.2 8.0 0.00 0.00 0.00 63 1007.9
20260505122544 15 213 3.2 8.0 0.00 0.00 0.00 63 1007.9
20260505122038 15 248 3.2 8.0 0.00 0.00 0.00 64 1007.8
20260505121611 15 235 1.6 6.4 0.00 0.00 0.00 65 1008.0
20260505121040 14 210 1.6 6.4 0.00 0.00 0.00 66 1007.9
20260505120539 13 257 3.2 6.4 0.00 0.00 0.00 67 1008.0
20260505120055 13 211 1.6 6.4 0.00 0.00 0.00 68 1008.2
20260505115546 13 238 1.6 6.4 0.00 0.00 0.00 69 1008.2
20260505115040 13 200 3.2 6.4 0.00 0.00 0.00 68 1008.5
20260505114552 13 194 3.2 6.4 0.00 0.00 0.00 70 1008.5
20260505114040 12 141 1.6 6.4 0.00 0.00 0.00 71 1008.3
20260505113539 12 224 1.6 4.8 0.00 0.00 0.00 72 1008.4
20260505113046 11 207 1.6 3.2 0.00 0.00 0.00 74 1008.5
20260505112539 11 153 1.6 3.2 0.00 0.00 0.00 75 1008.5
20260505112041 11 207 1.6 3.2 0.00 0.00 0.00 75 1008.7
20260505111547 11 139 0.0 1.6 0.00 0.00 0.00 76 1008.5
20260505111040 10 170 0.0 1.6 0.00 0.00 0.00 77 1008.5
20260505110543 10 155 0.0 1.6 0.00 0.00 0.00 77 1008.6
20260505102039 9 160 0.0 1.6 0.00 0.00 0.00 79 1008.5
20260505101555 9 169 0.0 1.6 0.00 0.00 0.00 78 1008.5
20260505101041 9 175 0.0 0.0 0.00 0.00 0.00 78 1008.4
20260505100540 9 0 0.0 0.0 0.00 0.00 0.00 77 1008.5
20260505100058 9 165 0.0 0.0 0.00 0.00 0.00 76 1008.4
20260505095541 10 0 0.0 0.0 0.00 0.00 0.00 76 1008.4
20260505095040 10 0 0.0 0.0 0.00 0.00 0.00 75 1008.5
20260505094555 10 165 0.0 0.0 0.00 0.00 0.00 75 1008.5
20260505094042 10 0 0.0 0.0 0.00 0.00 0.00 75 1008.4
20260505093542 10 165 0.0 1.6 0.00 0.00 0.00 74 1008.4
20260505093052 10 0 0.0 1.6 0.00 0.00 0.00 74 1008.4
20260505092540 10 165 0.0 1.6 0.00 0.00 0.00 73 1008.3
20260505092040 10 164 0.0 1.6 0.00 0.00 0.00 73 1008.4
20260505091550 10 172 0.0 1.6 0.00 0.00 0.00 72 1008.5
20260505091037 10 172 0.0 1.6 0.00 0.00 0.00 72 1008.4
20260505090540 10 158 0.0 1.6 0.00 0.00 0.00 71 1008.5
20260505090101 10 163 0.0 1.6 0.00 0.00 0.00 71 1008.4
20260505085537 10 163 0.0 1.6 0.00 0.00 0.00 71 1008.5
20260505085040 10 163 0.0 1.6 0.00 0.00 0.00 71 1008.6
20260505084551 10 172 0.0 1.6 0.00 0.00 0.00 72 1008.6
20260505084041 10 170 0.0 1.6 0.00 0.00 0.00 73 1008.6
20260505083540 10 172 0.0 1.6 0.00 0.00 0.00 74 1008.7
20260505083056 9 211 0.0 1.6 0.00 0.00 0.00 74 1008.7
20260505082540 9 211 0.0 1.6 0.00 0.00 0.00 74 1008.7
20260505082040 9 211 0.0 1.6 0.00 0.00 0.00 74 1008.8
20260505081551 10 0 0.0 0.0 0.00 0.00 0.00 72 1008.9
20260505081040 10 0 0.0 0.0 0.00 0.00 0.00 72 1008.8
20260505080539 10 0 0.0 0.0 0.00 0.00 0.00 71 1008.8
20260505080053 10 0 0.0 0.0 0.00 0.00 0.00 70 1008.8
20260505075542 10 0 0.0 0.0 0.00 0.00 0.00 69 1008.8
20260505075039 11 0 0.0 1.6 0.00 0.00 0.00 68 1008.8
20260505074549 11 0 0.0 1.6 0.00 0.00 0.00 67 1008.9
20260505074038 11 213 0.0 1.6 0.00 0.00 0.00 67 1008.9
20260505073538 11 229 0.0 1.6 0.00 0.00 0.00 67 1008.9
20260505073046 11 229 0.0 1.6 0.00 0.00 0.00 67 1008.9
20260505072542 11 0 0.0 1.6 0.00 0.00 0.00 67 1008.8
20260505072039 11 0 0.0 1.6 0.00 0.00 0.00 67 1008.7
20260505071553 11 247 0.0 1.6 0.00 0.00 0.00 66 1008.7
20260505071039 11 0 0.0 1.6 0.00 0.00 0.00 66 1008.6
20260505070539 11 247 0.0 1.6 0.00 0.00 0.00 66 1008.6
20260505070046 12 0 0.0 1.6 0.00 0.00 0.00 65 1008.6
20260505065541 12 247 0.0 1.6 0.00 0.00 0.00 65 1008.6
20260505065039 12 0 0.0 1.6 0.00 0.00 0.00 64 1008.6
20260505064544 12 0 0.0 1.6 0.00 0.00 0.00 64 1008.7
20260505064040 12 0 0.0 1.6 0.00 0.00 0.00 64 1008.7
20260505063538 12 0 0.0 1.6 0.00 0.00 0.00 63 1008.6
20260505063050 12 0 0.0 1.6 0.00 0.00 0.00 63 1008.7
20260505062538 12 247 0.0 1.6 0.00 0.00 0.00 62 1008.6
20260505062040 12 248 1.6 1.6 0.00 0.00 0.00 62 1008.5
20260505061554 12 238 0.0 1.6 0.00 0.00 0.00 62 1008.6
20260505061038 12 214 0.0 1.6 0.00 0.00 0.00 62 1008.6
20260505060538 12 0 0.0 1.6 0.00 0.00 0.00 62 1008.7
20260505060051 12 0 0.0 1.6 0.00 0.00 0.00 62 1008.5
20260505055540 13 0 0.0 1.6 0.00 0.00 0.00 61 1008.5
20260505055040 13 221 0.0 1.6 0.00 0.00 0.00 61 1008.6
20260505054552 13 232 0.0 1.6 0.00 0.00 0.00 61 1008.6
20260505054039 13 217 0.0 3.2 0.00 0.00 0.00 60 1008.5
20260505053538 13 217 0.0 3.2 0.00 0.00 0.00 60 1008.6
20260505053105 13 223 1.6 1.6 0.00 0.00 0.00 60 1008.5
20260505052538 13 234 0.0 1.6 0.00 0.00 0.00 60 1008.6
20260505052038 13 206 0.0 1.6 0.00 0.00 0.00 61 1008.5
20260505051550 13 0 0.0 1.6 0.00 0.00 0.00 60 1008.4
20260505051039 13 0 0.0 1.6 0.00 0.00 0.00 60 1008.5
20260505050537 13 228 0.0 1.6 0.00 0.00 0.00 59 1008.5
20260505041551 13 248 0.0 3.2 0.00 0.00 0.00 59 1008.1
20260505041041 13 227 0.0 3.2 0.00 0.00 0.00 59 1008.2
20260505040540 13 0 0.0 3.2 0.00 0.00 0.00 59 1008.1
20260505040046 13 226 1.6 3.2 0.00 0.00 0.00 59 1008.1
20260505035540 13 221 1.6 4.8 0.00 0.00 0.00 59 1008.0
20260505035043 13 225 1.6 4.8 0.00 0.00 0.00 59 1008.1
20260505034550 13 225 0.0 4.8 0.00 0.00 0.00 60 1007.9
20260505034040 13 213 1.6 3.2 0.00 0.00 0.00 61 1008.0
20260505033542 13 221 1.6 3.2 0.00 0.00 0.00 61 1007.9
20260505033106 13 221 0.0 3.2 0.00 0.00 0.00 62 1007.9
20260505032542 12 0 0.0 3.2 0.00 0.00 0.00 62 1007.9
20260505032036 12 220 0.0 1.6 0.00 0.00 0.00 62 1007.9
20260505031546 12 226 0.0 3.2 0.00 0.00 0.00 63 1008.0
20260505031042 12 0 1.6 6.4 0.00 0.00 0.00 64 1007.9
20260505030542 12 217 0.0 6.4 0.00 0.00 0.00 64 1007.9
20260505030058 12 237 1.6 4.8 0.00 0.00 0.00 67 1008.0
20260505025541 11 211 0.0 4.8 0.00 0.00 0.00 68 1008.0
20260505025040 11 164 0.0 3.2 0.00 0.00 0.00 69 1007.9
20260505024552 11 0 0.0 3.2 0.00 0.00 0.00 69 1007.9
20260505024040 11 203 1.6 3.2 0.00 0.00 0.00 69 1007.8
20260505023540 11 209 0.0 1.6 0.00 0.00 0.00 69 1007.8
20260505023058 11 165 0.0 1.6 0.00 0.00 0.00 69 1007.7
20260505022542 11 165 0.0 1.6 0.00 0.00 0.00 69 1007.7
20260505022045 11 164 0.0 1.6 0.00 0.00 0.00 69 1007.7
20260505021549 11 164 0.0 1.6 0.00 0.00 0.00 69 1007.7
20260505021038 11 0 0.0 1.6 0.00 0.00 0.00 68 1007.7
20260505020540 11 161 0.0 1.6 0.00 0.00 0.00 67 1007.6
20260505020051 12 161 0.0 1.6 0.00 0.00 0.00 66 1007.6
20260505015538 12 158 0.0 1.6 0.00 0.00 0.00 66 1007.5